Content
SEND FEEDBACK

Daily
Averages
Monthly
Summary
Mexico

PUERTO MORELOS, QUINTANA ROO


Home > North America > Mexico > Quintana Roo
Elevation: 20 feet     Latitude: 20 51N     Longitude: 086 52W

WEATHER
 
SELECT A DAY
Number of Records: 163,905;   Date Range: 1/1/95 - 8/10/14
 
SHARE

PRINT THIS DATA

[ ← Previous Day ]
WEATHER ALMANAC - APRIL 4, 2013
[ Next Day → ]
[ °C ]   °F
Weather ElementAverageHighLow
Temperature81.3 °F86 °F (12:47 pm)77 °F (11:50 pm)
Dewpoint73.6 °F75.2 °F (5:49 pm)71.6 °F (10:48 pm)
Humidity77.8 %89 % (8:40 pm)66 % (12:47 pm)
Barometer29.91 in29.98 in (8:40 pm)29.85 in (4:55 pm)
Wind Speed16.1 mph29.9 mph (10:45 am)
Wind Gust29.9 mph (9:43 am)
Weather ElementAverage
Visibility6.8 mi
Wind DirectionSSE (173.5 °)

Weather ElementTotal
Precipitation---
Cooling Degree Days16.5 (Base 65)
Growing Degree Days31.5 (Base 50)
Averaged from 23 records on April 4, 2013
WEATHER CONDITIONS BREAKOUT
WIND DIRECTION BREAKOUT
WEATHER BY HOUR - APRIL 4, 2013
[ °C ]   °F
Local TimeTemperatureDewpointHumidityBarometerVisibilityWind DirectionWind SpeedGust SpeedPrecipitationEventsConditions
1:44 AM78.8 °F73.4 °F83 %29.88 in7.0 miSE (140°)12.7 mphPartly Cloudy
2:46 AM78.8 °F73.4 °F83 %29.87 in7.0 miSE (140°)15.0 mphScattered Clouds
3:45 AM78.8 °F73.4 °F83 %29.87 in7.0 miSSE (160°)13.8 mphScattered Clouds
4:44 AM78.8 °F73.4 °F83 %29.88 in7.0 miSE (140°)13.8 mphScattered Clouds
5:43 AM78.8 °F73.4 °F83 %29.89 in7.0 miSouth (170°)15.0 mphScattered Clouds
6:42 AM80.6 °F73.4 °F79 %29.91 in7.0 miSSE (160°)16.1 mphMostly Cloudy
7:47 AM82.4 °F73.4 °F74 %29.93 in7.0 miSSE (150°)19.6 mphMostly Cloudy
8:46 AM82.4 °F73.4 °F74 %29.92 in7.0 miSouth (180°)16.1 mphMostly Cloudy
9:43 AM84.2 °F73.4 °F70 %29.95 in6.0 miSSE (160°)18.4 mph29.9 mphMostly Cloudy
10:45 AM84.2 °F73.4 °F70 %29.96 in6.0 miSE (140°)29.9 mphScattered Clouds
11:51 AM84.2 °F73.4 °F70 %29.95 in6.0 miSouth (180°)21.9 mphScattered Clouds
12:47 PM86.0 °F73.4 °F66 %29.91 in6.0 miSSE (150°)21.9 mphMostly Cloudy
1:45 PM84.2 °F73.4 °F70 %29.89 in6.0 miSSE (160°)19.6 mphMostly Cloudy
2:40 PM86.0 °F73.4 °F66 %29.89 in7.0 miSSE (150°)16.1 mphMostly Cloudy
3:44 PM84.2 °F73.4 °F70 %29.88 in7.0 miSouth (170°)17.3 mphMostly Cloudy
4:55 PM82.4 °F73.4 °F74 %29.85 in7.0 miSE (140°)17.3 mphMostly Cloudy
5:49 PM80.6 °F75.2 °F84 %29.89 in7.0 miSE (140°)13.8 mphMostly Cloudy
6:40 PM80.6 °F75.2 °F84 %29.90 in7.0 miSE (140°)11.5 mphMostly Cloudy
7:43 PM80.6 °F75.2 °F84 %29.93 in7.0 miSouth (170°)12.7 mphMostly Cloudy
8:40 PM78.8 °F75.2 °F89 %29.98 in7.0 miWSW (240°)4.6 mphMostly Cloudy
9:47 PM78.8 °F75.2 °F89 %29.89 in7.0 miSouth (190°)23.0 mphMostly Cloudy
10:48 PM78.8 °F71.6 °F78 %29.93 in7.0 miNW (310°)10.4 mphMostly Cloudy
11:50 PM77.0 °F71.6 °F83 %29.94 in7.0 miNW (310°)9.2 mphMostly Cloudy
Hourly data recorded from MMUN, located miles away from Puerto Morelos, Quintana Roo







STORIES FROM OUR PARTNERS